When you browse on this site, cookies collect data to enhance your experience and personalize the content and advertising you see.
Visit our Privacy Policy to learn more. By continuing to use the site, you agree to this use of cookies and data.
  • In Hungary
  • List of Countries
  • For 7 days
  • Water Temperature
  • Satellite Maps
  • Weather Map
  • News
  • Weather Widgets
  • user-avatar
    Login

    Hourly Weather Tbilisi

    Today, 18 January, Friday

    Time Temperature Precipitation Wind Pressure Humidity
    00:00 -3°C° 0 mm 4 mps 700 mmHg 70%
    01:00 -3°C° 0 mm 4 mps 701 mmHg 71%
    02:00 -3°C° 0 mm 4 mps 701 mmHg 72%
    03:00 -4°C° 0 mm 7 mps 701 mmHg 67%
    04:00 -4°C° 0 mm 6 mps 701 mmHg 68%
    05:00 -4°C° 0 mm 5 mps 702 mmHg 69%
    06:00 -3°C° 0 mm 4 mps 702 mmHg 70%
    07:00 -3°C° 0 mm 4 mps 702 mmHg 67%
    08:00 -2°C° 0 mm 4 mps 703 mmHg 65%
    09:00 0°C° 0 mm 3 mps 703 mmHg 61%
    10:00 0°C° 0 mm 4 mps 703 mmHg 57%
    11:00 +1°C° 0 mm 4 mps 703 mmHg 53%
    12:00 +3°C° 0 mm 4 mps 703 mmHg 48%
    13:00 +3°C° 0 mm 4 mps 703 mmHg 49%
    14:00 +3°C° 0 mm 4 mps 702 mmHg 49%
    15:00 +3°C° 0 mm 3 mps 702 mmHg 49%
    16:00 +2°C° 0 mm 3 mps 703 mmHg 56%
    17:00 +2°C° 0 mm 2 mps 703 mmHg 62%
    18:00 +1°C° 0 mm 2 mps 703 mmHg 69%
    19:00 -1°C° 0 mm 2 mps 703 mmHg 71%
    20:00 -1°C° 0 mm 2 mps 704 mmHg 72%
    21:00 -1°C° 0 mm 2 mps 704 mmHg 74%
    22:00 -1°C° 0 mm 2 mps 704 mmHg 72%
    23:00 -2°C° 0 mm 2 mps 704 mmHg 70%

    Tomorrow, 19 January, Saturday

    Time Temperature Precipitation Wind Pressure Humidity
    00:00 0°C° 0 mm 1 mps 704 mmHg 69%
    01:00 -2°C° 0 mm 2 mps 703 mmHg 66%
    02:00 -2°C° 0 mm 2 mps 703 mmHg 63%
    03:00 -2°C° 0 mm 2 mps 703 mmHg 60%
    04:00 -2°C° 0 mm 2 mps 703 mmHg 57%
    05:00 -2°C° 0 mm 2 mps 703 mmHg 53%
    06:00 -2°C° 0 mm 2 mps 703 mmHg 50%
    07:00 -2°C° 0 mm 2 mps 703 mmHg 46%
    08:00 -1°C° 0 mm 2 mps 703 mmHg 42%
    09:00 +1°C° 0 mm 2 mps 703 mmHg 38%
    10:00 +2°C° 0 mm 2 mps 702 mmHg 34%
    11:00 +4°C° 0 mm 2 mps 702 mmHg 30%
    12:00 +6°C° 0 mm 2 mps 702 mmHg 27%
    13:00 +6°C° 0 mm 2 mps 702 mmHg 27%
    14:00 +6°C° 0 mm 2 mps 702 mmHg 28%
    15:00 +7°C° 0 mm 2 mps 702 mmHg 28%
    16:00 +5°C° 0 mm 2 mps 702 mmHg 34%
    17:00 +4°C° 0 mm 2 mps 703 mmHg 40%
    18:00 +2°C° 0 mm 2 mps 703 mmHg 46%
    19:00 +2°C° 0 mm 2 mps 703 mmHg 49%
    20:00 +1°C° 0 mm 2 mps 703 mmHg 52%
    21:00 +1°C° 0 mm 2 mps 703 mmHg 55%
    22:00 +1°C° 0 mm 2 mps 703 mmHg 55%
    23:00 -1°C° 0 mm 2 mps 704 mmHg 55%

    Day after tomorrow, 20 January, Sunday

    Time Temperature Precipitation Wind Pressure Humidity
    00:00 -1°C° 0 mm 2 mps 704 mmHg 55%
    01:00 -1°C° 0 mm 2 mps 704 mmHg 54%
    02:00 -1°C° 0 mm 2 mps 704 mmHg 54%
    03:00 -1°C° 0 mm 2 mps 704 mmHg 53%
    04:00 -1°C° 0 mm 2 mps 704 mmHg 51%
    05:00 -1°C° 0 mm 2 mps 704 mmHg 50%
    06:00 -1°C° 0 mm 2 mps 704 mmHg 49%
    07:00 +1°C° 0 mm 1 mps 704 mmHg 46%
    08:00 +2°C° 0 mm 1 mps 705 mmHg 43%
    09:00 +2°C° 0 mm 1 mps 705 mmHg 40%
    10:00 +3°C° 0 mm 1 mps 705 mmHg 36%
    11:00 +5°C° 0 mm 1 mps 705 mmHg 32%
    12:00 +6°C° 0 mm 1 mps 705 mmHg 28%
    13:00 +6°C° 0 mm 1 mps 704 mmHg 28%
    14:00 +6°C° 0 mm 1 mps 704 mmHg 28%
    15:00 +7°C° 0 mm 1 mps 704 mmHg 28%
    16:00 +4°C° 0 mm 0 mps 704 mmHg 31%
    17:00 +3°C° 0 mm 0 mps 705 mmHg 34%
    18:00 +2°C° 0 mm 0 mps 705 mmHg 37%
    19:00 +2°C° 0 mm 0 mps 705 mmHg 39%
    20:00 +1°C° 0 mm 0 mps 705 mmHg 40%
    21:00 +2°C° 0 mm 1 mps 706 mmHg 42%
    22:00 +2°C° 0 mm 1 mps 706 mmHg 43%
    23:00 +1°C° 0 mm 1 mps 706 mmHg 44%

    21 January, Monday

    Time Temperature Precipitation Wind Pressure Humidity
    00:00 +1°C° 0 mm 1 mps 706 mmHg 45%
    01:00 +1°C° 0 mm 1 mps 706 mmHg 46%
    02:00 +1°C° 0 mm 1 mps 706 mmHg 46%
    03:00 0°C° 0 mm 1 mps 706 mmHg 47%
    04:00 0°C° 0 mm 1 mps 706 mmHg 47%
    05:00 0°C° 0 mm 1 mps 705 mmHg 48%
    06:00 0°C° 0 mm 1 mps 705 mmHg 48%
    07:00 -1°C° 0 mm 0 mps 705 mmHg 47%
    08:00 0°C° 0 mm 0 mps 705 mmHg 45%
    09:00 0°C° 0 mm 0 mps 705 mmHg 43%
    10:00 +3°C° 0 mm 1 mps 704 mmHg 40%
    11:00 +4°C° 0 mm 1 mps 704 mmHg 36%
    12:00 +5°C° 0 mm 1 mps 703 mmHg 33%
    13:00 +5°C° 0 mm 1 mps 703 mmHg 32%
    14:00 +5°C° 0 mm 1 mps 702 mmHg 32%
    15:00 +6°C° 0 mm 1 mps 702 mmHg 31%
    16:00 +4°C° 0 mm 1 mps 702 mmHg 35%
    17:00 +2°C° 0 mm 0 mps 702 mmHg 38%
    18:00 +1°C° 0 mm 0 mps 702 mmHg 42%
    19:00 +1°C° 0 mm 0 mps 702 mmHg 43%
    20:00 0°C° 0 mm 0 mps 703 mmHg 44%
    21:00 +1°C° 0 mm 1 mps 703 mmHg 45%
    22:00 +1°C° 0 mm 1 mps 702 mmHg 46%
    23:00 +1°C° 0 mm 1 mps 702 mmHg 46%

    22 January, Tuesday

    Time Temperature Precipitation Wind Pressure Humidity
    00:00 +1°C° 0 mm 1 mps 702 mmHg 46%
    01:00 +1°C° 0 mm 1 mps 702 mmHg 46%
    02:00 0°C° 0 mm 1 mps 702 mmHg 45%
    03:00 0°C° 0 mm 1 mps 702 mmHg 45%
    04:00 -2°C° 0 mm 2 mps 702 mmHg 44%
    05:00 -2°C° 0 mm 2 mps 701 mmHg 44%
    06:00 -2°C° 0 mm 2 mps 701 mmHg 44%
    07:00 -1°C° 0 mm 2 mps 701 mmHg 42%
    08:00 0°C° 0 mm 3 mps 701 mmHg 40%
    09:00 0°C° 0 mm 3 mps 701 mmHg 38%
    10:00 +1°C° 0 mm 4 mps 701 mmHg 37%
    11:00 +3°C° 0 mm 4 mps 701 mmHg 35%
    12:00 +5°C° 0 mm 5 mps 701 mmHg 34%
    13:00 +5°C° 0 mm 5 mps 701 mmHg 37%
    14:00 +5°C° 0 mm 5 mps 700 mmHg 39%
    15:00 +5°C° 0 mm 5 mps 700 mmHg 41%
    16:00 +4°C° 0 mm 4 mps 701 mmHg 49%
    17:00 +2°C° 0 mm 3 mps 701 mmHg 56%
    18:00 +2°C° 0 mm 2 mps 701 mmHg 64%
    19:00 +2°C° 0 mm 2 mps 701 mmHg 67%
    20:00 +1°C° 0 mm 2 mps 702 mmHg 70%
    21:00 +1°C° 0 mm 2 mps 702 mmHg 73%
    22:00 -1°C° 0 mm 2 mps 702 mmHg 75%
    23:00 -1°C° 0 mm 2 mps 702 mmHg 76%

    23 January, Wednesday

    Time Temperature Precipitation Wind Pressure Humidity
    00:00 +1°C° 0 mm 1 mps 702 mmHg 77%
    01:00 +1°C° 0 mm 1 mps 701 mmHg 77%
    02:00 +1°C° 0 mm 1 mps 701 mmHg 77%
    03:00 0°C° 0 mm 1 mps 701 mmHg 77%
    04:00 0°C° 0 mm 1 mps 701 mmHg 76%
    05:00 0°C° 0 mm 1 mps 701 mmHg 76%
    06:00 0°C° 0 mm 1 mps 701 mmHg 75%
    07:00 +1°C° 0 mm 1 mps 702 mmHg 72%
    08:00 +1°C° 0 mm 1 mps 702 mmHg 68%
    09:00 +2°C° 0 mm 1 mps 702 mmHg 65%
    10:00 +3°C° 0 mm 1 mps 702 mmHg 61%
    11:00 +4°C° 0 mm 1 mps 702 mmHg 57%
    12:00 +4°C° 0 mm 2 mps 701 mmHg 53%
    13:00 +4°C° 0 mm 2 mps 701 mmHg 52%
    14:00 +4°C° 0 mm 2 mps 701 mmHg 50%
    15:00 +4°C° 0 mm 2 mps 701 mmHg 49%
    16:00 +4°C° 0 mm 1 mps 701 mmHg 53%
    17:00 +3°C° 0 mm 1 mps 701 mmHg 57%
    18:00 +2°C° 0 mm 1 mps 702 mmHg 61%
    19:00 +2°C° 0 mm 1 mps 702 mmHg 62%
    20:00 +2°C° 0 mm 1 mps 702 mmHg 64%
    21:00 +1°C° 0 mm 1 mps 702 mmHg 65%
    22:00 +1°C° 0 mm 1 mps 702 mmHg 66%
    23:00 +1°C° 0 mm 1 mps 702 mmHg 66%
    Show more